AF1 KLAX-KSAN

Flight info

Callsign AF1
Flight time N/A
Altitude 13000
Route LAXX1 MZB
Aircraft B748/H-SDE3FGHIM1M2RWXY/LB1

Departure

Time 2026-04-23 03:58
Airport Los Angeles International Airport (KLAX)

Arrival

Time N/A
Airport San Diego International Airport (KSAN)
Time Latitude Longitude Altitude Speed Heading
2026-04-23 03:39 33.93364 -118.39154 132 ft 0 kts 180°
2026-04-23 03:44 33.93368 -118.39154 132 ft 2 kts 179°
2026-04-23 03:45 33.93384 -118.39154 129 ft 2 kts 183°
2026-04-23 03:45 33.93401 -118.39154 132 ft 2 kts 181°
2026-04-23 03:45 33.93417 -118.39154 132 ft 2 kts 181°
2026-04-23 03:45 33.93434 -118.39154 132 ft 2 kts 181°
2026-04-23 03:46 33.93450 -118.39154 132 ft 2 kts 182°
2026-04-23 03:46 33.93466 -118.39154 132 ft 2 kts 180°
2026-04-23 03:46 33.93483 -118.39155 132 ft 2 kts 172°
2026-04-23 03:46 33.93498 -118.39159 132 ft 2 kts 148°
2026-04-23 03:47 33.93511 -118.39172 132 ft 2 kts 118°
2026-04-23 03:47 33.93518 -118.39189 132 ft 2 kts 107°
2026-04-23 03:47 33.93518 -118.39209 129 ft 2 kts 89°
2026-04-23 03:47 33.93518 -118.39216 132 ft 0 kts 73°
2026-04-23 03:48 33.93518 -118.39215 132 ft 0 kts 73°
2026-04-23 03:49 33.93522 -118.39184 132 ft 11 kts 83°
2026-04-23 03:49 33.93536 -118.39043 124 ft 23 kts 83°
2026-04-23 03:49 33.93559 -118.38809 132 ft 31 kts 83°
2026-04-23 03:50 33.93580 -118.38601 127 ft 21 kts 83°
2026-04-23 03:50 33.93592 -118.38482 132 ft 11 kts 82°
2026-04-23 03:50 33.93601 -118.38399 132 ft 9 kts 82°
2026-04-23 03:50 33.93610 -118.38327 124 ft 8 kts 78°
2026-04-23 03:51 33.93630 -118.38293 126 ft 2 kts 39°
2026-04-23 03:51 33.93636 -118.38289 125 ft 0 kts 26°
2026-04-23 03:53 33.93639 -118.38287 127 ft 3 kts 26°
2026-04-23 03:53 33.93688 -118.38280 129 ft 11 kts 356°
2026-04-23 03:53 33.93729 -118.38318 127 ft 8 kts 291°
2026-04-23 03:54 33.93728 -118.38381 130 ft 0 kts 262°
2026-04-23 03:57 33.93699 -118.38636 130 ft 70 kts 262°
2026-04-23 03:57 33.93610 -118.39515 133 ft 140 kts 263°
2026-04-23 03:57 33.93469 -118.40889 261 ft 178 kts 263°
2026-04-23 03:58 33.93346 -118.42353 714 ft 181 kts 268°
2026-04-23 03:58 33.93354 -118.43979 805 ft 205 kts 267°
2026-04-23 03:58 33.92889 -118.45614 1234 ft 212 kts 236°
2026-04-23 03:58 33.91971 -118.47065 1708 ft 221 kts 234°
2026-04-23 03:59 33.90969 -118.48569 2095 ft 241 kts 228°
2026-04-23 03:59 33.89535 -118.49691 2542 ft 263 kts 200°
2026-04-23 03:59 33.87703 -118.50259 3023 ft 282 kts 193°
2026-04-23 03:59 33.85709 -118.50690 3490 ft 300 kts 191°
2026-04-23 04:00 33.83594 -118.51104 3957 ft 316 kts 191°
2026-04-23 04:00 33.81364 -118.51530 4437 ft 333 kts 190°
2026-04-23 04:00 33.79018 -118.51958 4913 ft 349 kts 187°
2026-04-23 04:00 33.40351 -118.44451 5058 ft 7173 kts 151°
2026-04-23 04:01 33.31163 -118.38635 5387 ft 365 kts 166°
2026-04-23 04:01 33.28613 -118.38115 5812 ft 380 kts 174°
2026-04-23 04:01 33.26235 -118.37603 6194 ft 399 kts 163°
2026-04-23 04:01 33.23746 -118.36072 6644 ft 420 kts 144°
2026-04-23 04:02 33.21668 -118.33620 7057 ft 439 kts 128°
2026-04-23 04:02 33.19930 -118.30533 7484 ft 457 kts 118°
2026-04-23 04:02 33.18552 -118.27055 7929 ft 472 kts 113°
2026-04-23 04:02 33.17298 -118.23371 8359 ft 485 kts 111°
2026-04-23 04:03 33.15991 -118.19612 8785 ft 496 kts 114°
2026-04-23 04:03 33.14490 -118.15862 9219 ft 506 kts 116°
2026-04-23 04:03 33.12960 -118.12089 9648 ft 515 kts 115°
2026-04-23 04:03 33.11487 -118.08189 10002 ft 508 kts 114°
2026-04-23 04:04 33.10091 -118.04418 10019 ft 485 kts 115°
2026-04-23 04:04 33.08715 -118.00849 10017 ft 463 kts 115°
2026-04-23 04:04 33.07376 -117.97441 10014 ft 444 kts 115°
2026-04-23 04:04 33.06110 -117.94164 10014 ft 427 kts 115°
2026-04-23 04:05 33.04876 -117.90932 10033 ft 443 kts 115°
2026-04-23 04:05 33.03536 -117.87453 10040 ft 481 kts 115°
2026-04-23 04:05 33.02082 -117.83706 10048 ft 515 kts 115°
2026-04-23 04:05 33.00536 -117.79717 10051 ft 544 kts 115°
2026-04-23 04:06 32.98929 -117.75541 10054 ft 0 kts 115°
2026-04-23 04:06 33.93364 -118.39154 132 ft 0 kts 180°